Temp
68 67 62 62 61 60 62 61 61 58 60 60 58 58 58 59 60 61 63 63 63 64 65 65 65 65 65
64 64 63 63 63 61 61 62 62 59 58 58 58 58 58 58 58 59 59 59 60 61 61 62 63 63 64
60 62 62 62 61 62 62 61 61 57 58 57 58 58 58 58 58 58 57 56 56 56 57 58 59 60 61
59 59 59 60 61 59 57 59 58 55 55 56 57 56 56 57 56 55 54 54 55 55 54 54 54 56 57
56 57 57 51 55 56 57 56 52 51 50 49 51 51 52 53 51 51 52 53 53 53 54 54 53 54 56
57 57 57 58 56 57 55 48 48 48 48 45 47 46 47 49 50 50 50 51 51 52 52 53 53 53 53
56 57 57 58 57 51 50 50 49 47 47 44 45 44 46 47 49 49 49 50 50 51 52 52 52 51 51
47 46 47 48 52 53 52 46 45 45 47 41 44 44 45 44 47 48 49 49 50 50 51 50 50 50 50
44 44 45 45 46 47 45 44 42 42 43 42 42 41 42 41 42 46 48 48 49 50 50 50 49 48 48
40 40 40 41 42 41 42 39 36 37 41 39 38 39 37 40 40 43 44 48 49 49 49 49 48 46 46
37 37 38 37 37 38 39 37 35 35 40 38 36 37 36 37 38 39 41 41 43 44 47 47 47 46 44
34 33 33 33 35 36 37 37 37 36 39 38 34 37 35 35 34 36 37 40 38 36 38 45 46 46 46
32 32 33 34 35 35 36 36 35 35 36 34 35 34 34 34 33 33 35 33 36 37 38 39 39 40 38
32 33 34 34 33 34 32 33 34 33 33 34 34 34 33 33 33 32 33 33 35 35 35 37 40 40 40
32 31 32 32 31 32 31 32 32 32 31 31 34 33 34 33 32 32 29 34 35 34 34 34 36 38 39
31 31 31 31 31 28 29 27 28 30 30 31 28 28 28 31 36 29 31 33 34 35 34 32 33 36 39
29 27 27 27 27 26 26 26 25 25 25 26 25 23 19 20 28 37 30 32 33 33 31 33 33 35 37
MSLP
1003.25 1003.50 1004.27 1004.56 1004.91 1005.27 1005.27 1005.39 1005.96 1006.04 1005.98 1006.47 1006.87 1006.91 1006.40 1006.53 1007.41 1007.62 1007.84 1008.20 1008.67 1009.17 1009.62 1010.17 1010.47 1010.79 1011.01
1002.75 1002.84 1003.43 1003.87 1004.21 1004.61 1004.74 1004.59 1004.90 1005.02 1005.37 1005.63 1005.94 1005.90 1006.22 1006.14 1006.70 1006.92 1007.25 1007.48 1008.12 1008.57 1009.12 1009.61 1009.91 1010.13 1010.45
1002.18 1002.56 1002.73 1003.04 1003.51 1003.61 1003.89 1004.10 1004.11 1004.21 1004.47 1004.85 1005.00 1005.27 1005.31 1005.40 1005.87 1006.00 1006.26 1006.91 1007.55 1008.05 1008.53 1009.08 1009.43 1009.86 1010.08
1001.83 1002.08 1002.32 1002.44 1002.71 1003.07 1003.31 1003.43 1003.60 1003.78 1004.00 1004.27 1004.26 1004.62 1004.48 1004.56 1005.00 1005.20 1005.41 1006.13 1006.88 1007.31 1007.97 1008.61 1009.15 1009.52 1009.68
1001.51 1001.79 1002.01 1002.42 1002.33 1002.56 1002.86 1003.08 1003.47 1003.78 1004.15 1004.27 1004.23 1004.28 1004.05 1003.84 1004.47 1004.82 1005.22 1005.59 1006.43 1007.26 1007.67 1008.37 1008.83 1009.10 1009.31
1001.14 1001.17 1001.23 1001.51 1001.83 1001.99 1002.51 1003.25 1003.86 1003.88 1004.01 1004.55 1004.42 1004.68 1004.78 1004.44 1004.90 1005.14 1005.33 1006.03 1006.54 1007.11 1007.57 1008.18 1008.47 1008.89 1009.23
1001.05 1000.83 1000.91 1000.72 1001.04 1001.83 1002.24 1002.88 1003.14 1003.54 1003.78 1004.51 1004.62 1004.97 1005.32 1005.27 1005.17 1005.29 1005.69 1006.11 1006.61 1007.09 1007.51 1007.78 1008.23 1008.77 1009.12
1001.16 1001.33 1001.09 1000.96 1000.88 1000.90 1001.63 1002.59 1003.24 1003.63 1003.70 1004.57 1004.73 1005.10 1005.59 1005.65 1005.68 1005.79 1006.14 1006.53 1007.08 1007.45 1007.63 1008.00 1008.24 1008.60 1008.90
1002.08 1001.77 1001.18 1001.30 1001.53 1001.31 1001.87 1002.39 1003.67 1003.97 1003.73 1004.25 1004.77 1005.34 1005.92 1006.09 1006.12 1006.12 1006.54 1007.03 1007.43 1007.75 1007.79 1008.21 1008.39 1008.54 1008.72
1002.06 1002.01 1002.10 1002.39 1002.42 1002.65 1002.61 1003.12 1004.07 1004.31 1004.35 1004.57 1005.22 1005.55 1006.16 1006.47 1006.63 1006.70 1006.82 1007.06 1007.37 1008.03 1007.98 1008.06 1008.24 1008.46 1008.72
1003.24 1003.31 1003.52 1003.13 1003.18 1003.70 1004.06 1003.51 1004.85 1005.22 1005.05 1004.74 1005.35 1005.58 1006.23 1006.80 1007.09 1007.02 1006.98 1007.51 1007.78 1008.10 1008.31 1008.39 1008.49 1008.41 1008.46
1004.40 1004.93 1004.83 1004.39 1004.85 1005.24 1004.94 1004.97 1005.31 1005.53 1005.77 1005.83 1006.36 1006.58 1006.71 1007.02 1007.35 1007.36 1007.30 1007.55 1007.99 1008.18 1008.43 1008.69 1008.38 1008.37 1008.26
1005.44 1005.62 1005.58 1005.55 1005.76 1005.83 1005.76 1005.95 1006.81 1007.01 1007.00 1006.88 1006.96 1007.17 1007.30 1007.59 1007.89 1007.86 1008.11 1008.34 1008.14 1007.93 1008.19 1009.02 1008.80 1008.24 1008.08
1006.05 1006.12 1006.07 1006.21 1006.47 1006.70 1006.98 1007.20 1007.55 1007.89 1007.99 1007.94 1007.91 1007.92 1008.02 1008.10 1008.22 1008.43 1008.45 1008.51 1008.26 1008.35 1008.74 1009.01 1008.72 1008.28 1008.15
1006.67 1006.83 1007.04 1007.33 1007.60 1007.63 1007.80 1007.91 1008.02 1008.31 1008.37 1008.20 1008.38 1008.27 1008.42 1008.53 1008.65 1008.70 1008.67 1008.62 1008.60 1008.77 1008.91 1008.71 1008.37 1008.27 1008.00
1007.34 1007.53 1007.74 1007.94 1008.19 1008.38 1008.38 1008.42 1008.59 1008.63 1008.65 1008.63 1008.49 1008.39 1008.25 1008.26 1008.41 1008.60 1008.60 1008.62 1008.50 1008.54 1008.52 1008.45 1008.21 1007.91 1007.61
1008.04 1008.28 1008.40 1008.50 1008.69 1008.84 1008.91 1008.91 1009.06 1008.93 1008.92 1008.96 1008.94 1008.99 1008.87 1008.65 1008.18 1008.25 1008.47 1008.63 1008.46 1008.21 1008.11 1007.79 1007.61 1007.35 1007.32
Wind_Speed
9 9 10 12 9 11 10 10 10 19 21 19 14 13 12 12 14 16 19 19 18 17 15 14 14 16 18
10 8 11 11 11 11 10 9 11 12 19 21 20 16 16 15 16 16 15 15 14 13 12 12 12 12 14
8 5 7 5 9 10 10 11 8 10 13 16 17 19 20 20 22 20 19 17 15 13 11 10 9 10 11
7 7 7 6 8 9 6 6 7 3 4 7 9 15 18 20 21 19 18 17 15 13 11 9 9 10 10
7 8 7 3 6 4 8 4 3 2 2 1 1 1 2 5 8 11 12 14 11 9 7 8 9 9 8
8 9 11 9 6 8 7 3 3 3 3 1 2 2 3 4 11 12 12 10 8 6 6 8 8 10 10
12 10 8 7 8 5 6 5 4 2 4 1 1 3 2 3 10 11 10 9 7 7 8 8 11 10 9
5 4 2 3 3 5 6 4 5 2 1 3 1 3 3 4 8 8 7 7 5 6 7 8 8 7 6
17 19 23 23 12 4 5 7 2 1 3 3 1 4 2 3 3 6 6 5 4 3 5 6 6 4 2
7 13 15 15 21 10 5 4 2 2 4 4 2 2 3 2 2 3 3 5 4 3 5 6 6 2 2
8 8 7 9 10 9 9 8 3 2 5 3 2 2 3 3 2 2 3 3 3 2 1 3 4 5 2
7 6 6 8 8 7 9 10 8 7 6 6 2 2 2 2 2 1 2 2 2 1 1 4 5 7 8
6 6 6 6 5 4 7 9 8 8 7 6 5 3 3 2 1 3 3 3 3 2 0 3 4 2 2
6 5 5 7 7 5 4 3 4 4 6 7 6 4 2 2 2 1 1 2 3 3 1 3 4 4 4
5 5 5 5 5 3 3 3 5 3 3 2 5 3 2 1 1 3 2 4 4 3 3 4 4 4 5
5 5 5 4 4 2 3 3 3 2 2 2 2 3 2 3 8 2 2 2 3 4 3 4 7 4 4
4 3 2 2 3 2 2 2 2 2 2 1 1 1 2 1 3 9 4 4 5 5 3 3 5 5 4
Wind_Direction
236 204 203 209 210 213 218 209 223 222 223 228 237 235 221 221 237 228 215 193 186 192 201 218 232 242 248
237 236 211 206 220 215 218 218 224 217 221 228 223 218 227 223 221 214 196 182 187 190 201 217 236 249 259
238 229 239 202 218 220 222 227 226 223 216 224 229 232 227 228 228 212 187 178 181 189 199 210 220 239 254
240 239 245 242 230 225 213 214 222 200 222 247 227 236 233 230 221 202 179 167 173 174 190 202 217 227 236
241 235 226 189 216 198 227 208 234 152 155 62 32 137 170 142 126 133 140 141 152 180 183 204 214 216 180
244 240 236 229 213 216 217 156 247 205 139 131 65 53 23 79 121 121 116 126 139 160 191 208 189 166 154
264 251 255 232 210 189 181 200 187 208 117 150 114 87 81 96 113 119 130 134 149 175 191 181 162 156 164
107 65 27 344 257 224 199 120 86 73 121 110 210 95 103 70 87 104 118 130 146 157 145 145 150 161 174
83 82 69 55 44 111 139 138 111 59 16 108 81 100 59 65 73 90 113 122 123 148 147 147 147 154 216
60 47 51 57 52 48 54 90 125 52 350 86 67 93 81 41 62 122 116 109 124 152 154 167 179 189 222
49 41 38 48 49 46 33 68 38 69 351 81 83 104 92 139 121 95 83 71 50 64 283 277 262 234 226
61 47 46 50 46 35 50 47 41 61 27 34 79 34 80 84 123 60 79 85 145 193 8 283 253 243 246
65 57 52 58 57 49 49 74 64 46 35 35 56 36 44 53 71 39 28 344 339 2 314 289 283 246 249
77 65 52 48 47 31 42 29 66 49 48 51 48 30 51 62 80 65 5 328 354 19 358 292 294 271 247
66 63 61 63 53 30 42 45 74 52 35 35 29 44 46 5 320 261 247 291 295 289 283 289 285 261 282
64 66 71 64 71 40 36 41 62 55 41 17 356 358 346 253 213 237 289 254 286 292 282 280 299 282 283
81 64 70 69 73 63 50 50 47 46 22 351 346 27 29 5 317 209 24 344 313 291 250 253 277 281 264